TimeMST,TemperatureF,Dew PointF,Humidity,Sea Level PressureIn,VisibilityMPH,Wind Direction,Wind SpeedMPH,Gust SpeedMPH,PrecipitationIn,Events,Conditions,WindDirDegrees,DateUTC
12:15 AM,-5.8,-23.8,42,30.45,10.0,Calm,Calm,-,N/A,,Clear,0,2013-01-09 07:15:00
12:35 AM,-4.0,-23.8,38,30.46,10.0,SSW,3.5,-,N/A,,Clear,200,2013-01-09 07:35:00
12:55 AM,-4.0,-18.4,50,30.46,10.0,South,4.6,-,N/A,,Clear,190,2013-01-09 07:55:00
1:15 AM,-4.0,-14.8,60,30.46,10.0,ENE,4.6,-,N/A,,Clear,70,2013-01-09 08:15:00
1:35 AM,-5.8,-16.6,60,30.46,10.0,Calm,Calm,-,N/A,,Clear,0,2013-01-09 08:35:00
1:55 AM,-7.6,-20.2,54,30.46,10.0,Calm,Calm,-,N/A,,Clear,0,2013-01-09 08:55:00
2:15 AM,-5.8,-5.8,100,30.47,10.0,Calm,Calm,-,N/A,,Clear,0,2013-01-09 09:15:00
2:35 AM,-7.6,-9999,N/A,30.47,10.0,Calm,Calm,-,N/A,,Clear,0,2013-01-09 09:35:00
2:55 AM,-9.4,-18.4,65,30.47,10.0,ENE,5.8,-,N/A,,Clear,70,2013-01-09 09:55:00
3:15 AM,-7.6,-20.2,54,30.47,10.0,Calm,Calm,-,N/A,,Clear,0,2013-01-09 10:15:00
3:35 AM,-7.6,-14.8,71,30.47,10.0,NNE,3.5,-,N/A,,Clear,30,2013-01-09 10:35:00
3:55 AM,-7.6,-22.0,50,30.47,10.0,NE,4.6,-,N/A,,Clear,40,2013-01-09 10:55:00
4:15 AM,-7.6,-13.0,77,30.47,10.0,Calm,Calm,-,N/A,,Clear,0,2013-01-09 11:15:00
4:35 AM,-11.2,-29.2,41,30.46,10.0,SSE,3.5,-,N/A,,Clear,160,2013-01-09 11:35:00
4:55 AM,-11.2,-20.2,64,30.46,10.0,Calm,Calm,-,N/A,,Clear,0,2013-01-09 11:55:00
5:15 AM,-9.4,-20.2,59,30.47,10.0,Calm,Calm,-,N/A,,Clear,0,2013-01-09 12:15:00
5:35 AM,-9.4,-18.4,65,30.47,10.0,Calm,Calm,-,N/A,,Clear,0,2013-01-09 12:35:00
5:55 AM,-9.4,-22.0,54,30.48,10.0,Calm,Calm,-,N/A,,Clear,0,2013-01-09 12:55:00
6:35 AM,-11.2,-20.2,64,30.48,10.0,Calm,Calm,-,N/A,,Clear,0,2013-01-09 13:35:00
6:55 AM,-11.2,-20.2,64,30.48,7.0,Calm,Calm,-,N/A,,Clear,0,2013-01-09 13:55:00
7:35 AM,-11.2,-18.4,70,30.50,10.0,Calm,Calm,-,N/A,,Clear,0,2013-01-09 14:35:00
8:15 AM,-9.4,-16.6,71,30.53,10.0,Calm,Calm,-,N/A,,Clear,0,2013-01-09 15:15:00
8:35 AM,-7.6,-9999,N/A,30.53,10.0,Calm,Calm,-,N/A,,Clear,0,2013-01-09 15:35:00
9:15 AM,-7.6,-9999,N/A,30.55,10.0,Calm,Calm,-,N/A,,Clear,0,2013-01-09 16:15:00
9:55 AM,-5.8,-23.8,42,30.55,10.0,Calm,Calm,-,N/A,,Clear,0,2013-01-09 16:55:00
10:15 AM,-2.2,-20.2,42,30.54,10.0,Calm,Calm,-,N/A,,Clear,0,2013-01-09 17:15:00
10:55 AM,6.8,-4.0,61,30.52,10.0,Calm,Calm,-,N/A,,Clear,0,2013-01-09 17:55:00
11:15 AM,5.0,-11.2,47,30.50,10.0,ESE,3.5,-,N/A,,Clear,110,2013-01-09 18:15:00
11:35 AM,5.0,-4.0,66,30.48,10.0,East,3.5,-,N/A,,Clear,90,2013-01-09 18:35:00
11:55 AM,6.8,-11.2,44,30.46,10.0,ESE,4.6,-,N/A,,Clear,110,2013-01-09 18:55:00
12:15 PM,8.6,-2.2,62,30.45,10.0,Calm,Calm,-,N/A,,Clear,0,2013-01-09 19:15:00
12:35 PM,10.4,-9.4,41,30.43,10.0,Calm,Calm,-,N/A,,Clear,0,2013-01-09 19:35:00
12:55 PM,12.2,-9.4,38,30.42,10.0,Calm,Calm,-,N/A,,Clear,0,2013-01-09 19:55:00
1:15 PM,12.2,-11.2,34,30.41,10.0,Calm,Calm,-,N/A,,Clear,0,2013-01-09 20:15:00
1:35 PM,15.8,-5.8,38,30.40,10.0,SE,4.6,-,N/A,,Clear,140,2013-01-09 20:35:00
1:55 PM,17.6,-7.6,32,30.40,10.0,Calm,Calm,-,N/A,,Clear,0,2013-01-09 20:55:00
2:15 PM,17.6,-0.4,45,30.40,10.0,East,3.5,-,N/A,,Clear,100,2013-01-09 21:15:00
2:35 PM,19.4,1.4,46,30.39,10.0,Calm,Calm,-,N/A,,Clear,0,2013-01-09 21:35:00
2:55 PM,17.6,-0.4,45,30.38,10.0,Calm,Calm,-,N/A,,Clear,0,2013-01-09 21:55:00
3:15 PM,19.4,-0.4,42,30.37,10.0,SE,3.5,-,N/A,,Clear,130,2013-01-09 22:15:00
3:35 PM,19.4,1.4,46,30.37,10.0,Calm,Calm,-,N/A,,Clear,0,2013-01-09 22:35:00
4:15 PM,19.4,1.4,46,30.35,10.0,NNE,4.6,-,N/A,,Clear,30,2013-01-09 23:15:00
4:35 PM,19.4,1.4,46,30.34,10.0,East,4.6,-,N/A,,Clear,80,2013-01-09 23:35:00
4:55 PM,19.4,1.4,46,30.34,10.0,North,4.6,-,N/A,,Clear,350,2013-01-09 23:55:00
5:15 PM,17.6,3.2,53,30.34,10.0,North,-9999.0,-,N/A,,Clear,0,2013-01-10 00:15:00
5:35 PM,14.0,-2.2,49,30.34,10.0,North,3.5,-,N/A,,Clear,10,2013-01-10 00:35:00
5:55 PM,12.2,1.4,62,30.34,10.0,Calm,Calm,-,N/A,,Clear,0,2013-01-10 00:55:00
6:15 PM,12.2,1.4,62,30.34,10.0,North,3.5,-,N/A,,Clear,10,2013-01-10 01:15:00
6:55 PM,8.6,3.2,79,30.33,10.0,Calm,Calm,-,N/A,,Clear,0,2013-01-10 01:55:00
7:15 PM,3.2,-5.8,66,30.33,10.0,Calm,Calm,-,N/A,,Clear,0,2013-01-10 02:15:00
7:35 PM,5.0,-2.2,72,30.33,10.0,ENE,4.6,-,N/A,,Clear,60,2013-01-10 02:35:00
8:15 PM,3.2,-0.4,85,30.32,10.0,Calm,Calm,-,N/A,,Clear,0,2013-01-10 03:15:00
8:35 PM,-0.4,-9.4,66,30.32,10.0,Calm,Calm,-,N/A,,Clear,0,2013-01-10 03:35:00
8:55 PM,-0.4,-11.2,60,30.31,10.0,Calm,Calm,-,N/A,,Clear,0,2013-01-10 03:55:00
9:15 PM,-0.4,-5.8,78,30.31,10.0,Calm,Calm,-,N/A,,Clear,0,2013-01-10 04:15:00
9:35 PM,-0.4,-5.8,78,30.31,10.0,ENE,3.5,-,N/A,,Clear,70,2013-01-10 04:35:00
9:55 PM,-4.0,-18.4,50,30.31,10.0,Calm,Calm,-,N/A,,Clear,0,2013-01-10 04:55:00
10:15 PM,-2.2,-14.8,55,30.30,10.0,Calm,Calm,-,N/A,,Clear,0,2013-01-10 05:15:00
10:35 PM,-2.2,-22.0,39,30.29,10.0,ENE,3.5,-,N/A,,Clear,60,2013-01-10 05:35:00
10:55 PM,-4.0,-20.2,46,30.29,10.0,Calm,Calm,-,N/A,,Clear,0,2013-01-10 05:55:00
11:35 PM,-5.8,-9999,N/A,30.27,10.0,Calm,Calm,-,N/A,,Clear,0,2013-01-10 06:35:00
11:55 PM,-5.8,-29.2,32,30.26,10.0,NE,4.6,-,N/A,,Clear,40,2013-01-10 06:55:00